TimeEDT,TemperatureF,Dew PointF,Humidity,Sea Level PressureIn,VisibilityMPH,Wind Direction,Wind SpeedMPH,Gust SpeedMPH,PrecipitationIn,Events,Conditions,WindDirDegrees,DateUTC
12:53 AM,57.0,48.0,72,29.99,10.0,NW,8.1,-,N/A,,Clear,320,2012-10-23 04:53:00
2:53 AM,55.0,48.0,77,30.01,10.0,NW,9.2,-,N/A,,Clear,310,2012-10-23 06:53:00
3:53 AM,55.0,46.9,74,30.01,10.0,NW,9.2,-,N/A,,Clear,310,2012-10-23 07:53:00
4:53 AM,53.1,46.0,77,30.02,10.0,NNW,5.8,-,N/A,,Clear,330,2012-10-23 08:53:00
5:53 AM,53.1,46.0,77,30.03,10.0,NNW,8.1,-,N/A,,Clear,340,2012-10-23 09:53:00
6:53 AM,53.1,45.0,74,30.05,10.0,NW,8.1,-,N/A,,Clear,320,2012-10-23 10:53:00
7:53 AM,55.0,45.0,69,30.08,10.0,NW,10.4,-,N/A,,Clear,320,2012-10-23 11:53:00
8:53 AM,57.9,45.0,62,30.09,10.0,NW,16.1,-,N/A,,Clear,320,2012-10-23 12:53:00
10:53 AM,59.0,45.0,60,30.09,10.0,NNW,13.8,-,N/A,,Clear,340,2012-10-23 14:53:00
11:53 AM,60.1,45.0,57,30.09,10.0,NNW,15.0,-,N/A,,Clear,340,2012-10-23 15:53:00
1:53 PM,61.0,44.1,54,30.06,10.0,NNW,6.9,-,N/A,,Clear,340,2012-10-23 17:53:00
2:53 PM,62.1,46.0,56,30.05,10.0,Variable,5.8,-,N/A,,Clear,0,2012-10-23 18:53:00
3:53 PM,59.0,46.0,62,30.05,10.0,SW,8.1,-,N/A,,Clear,230,2012-10-23 19:53:00
4:53 PM,59.0,48.0,67,30.07,10.0,West,10.4,-,N/A,,Clear,260,2012-10-23 20:53:00
5:53 PM,57.0,48.0,72,30.07,10.0,West,4.6,-,N/A,,Clear,260,2012-10-23 21:53:00
7:53 PM,57.0,50.0,77,30.08,10.0,Calm,Calm,-,N/A,,Mostly Cloudy,0,2012-10-23 23:53:00
8:53 PM,55.9,50.0,80,30.09,10.0,WSW,3.5,-,N/A,,Overcast,250,2012-10-24 00:53:00
9:53 PM,55.9,52.0,87,30.09,10.0,Calm,Calm,-,N/A,,Overcast,0,2012-10-24 01:53:00
10:53 PM,55.0,52.0,89,30.09,10.0,Calm,Calm,-,0.00,Rain,Light Rain,0,2012-10-24 02:53:00
11:53 PM,57.0,55.0,93,30.10,6.0,West,8.1,-,0.02,Rain,Light Rain,260,2012-10-24 03:53:00